Time,TemperatureF,DewpointF,PressureIn,WindDirection,WindDirectionDegrees,WindSpeedMPH,WindSpeedGustMPH,Humidity,HourlyPrecipIn,Conditions,Clouds,dailyrainin,SoftwareType,DateUTC
2013-09-20 00:12:00,53.0,52.0,30.05,West,266,0.0,0.0,95,0.00,,,0.00,weatherlink.com 1.10,2013-09-20 04:12:00,
2013-09-20 00:27:00,52.7,51.0,30.05,West,266,0.0,0.0,95,0.00,,,0.00,weatherlink.com 1.10,2013-09-20 04:27:00,
2013-09-20 00:42:00,52.6,51.0,30.05,West,266,0.0,0.0,95,0.00,,,0.00,weatherlink.com 1.10,2013-09-20 04:42:00,
2013-09-20 00:57:00,52.4,51.0,30.05,West,266,0.0,0.0,95,0.00,,,0.00,weatherlink.com 1.10,2013-09-20 04:57:00,
2013-09-20 01:12:00,52.3,51.0,30.05,West,266,0.0,0.0,96,0.00,,,0.00,weatherlink.com 1.10,2013-09-20 05:12:00,
2013-09-20 01:27:00,51.8,51.0,30.05,West,266,0.0,0.0,96,0.00,,,0.00,weatherlink.com 1.10,2013-09-20 05:27:00,
2013-09-20 01:42:00,51.7,51.0,30.06,West,266,0.0,0.0,96,0.00,,,0.00,weatherlink.com 1.10,2013-09-20 05:42:00,
2013-09-20 01:57:00,51.6,51.0,30.05,West,266,0.0,0.0,96,0.00,,,0.00,weatherlink.com 1.10,2013-09-20 05:57:00,
2013-09-20 02:12:00,51.4,50.0,30.05,West,266,0.0,0.0,96,0.00,,,0.00,weatherlink.com 1.10,2013-09-20 06:12:00,
2013-09-20 02:27:00,51.2,50.0,30.05,NW,318,0.0,0.0,96,0.00,,,0.00,weatherlink.com 1.10,2013-09-20 06:27:00,
2013-09-20 02:42:00,51.2,50.0,30.04,NW,317,0.0,0.0,96,0.00,,,0.00,weatherlink.com 1.10,2013-09-20 06:42:00,
2013-09-20 02:57:00,50.9,50.0,30.04,NW,318,0.0,0.0,96,0.00,,,0.00,weatherlink.com 1.10,2013-09-20 06:57:00,
2013-09-20 03:12:00,51.0,50.0,30.05,NW,317,0.0,0.0,96,0.00,,,0.00,weatherlink.com 1.10,2013-09-20 07:12:00,
2013-09-20 03:27:00,51.0,50.0,30.05,NW,317,0.0,0.0,96,0.00,,,0.00,weatherlink.com 1.10,2013-09-20 07:27:00,
2013-09-20 03:42:00,51.0,50.0,30.05,NW,318,0.0,0.0,96,0.00,,,0.00,weatherlink.com 1.10,2013-09-20 07:42:00,
2013-09-20 03:57:00,51.0,50.0,30.05,NW,318,0.0,0.0,96,0.00,,,0.00,weatherlink.com 1.10,2013-09-20 07:57:00,
2013-09-20 04:12:00,51.0,50.0,30.05,NW,318,0.0,0.0,96,0.00,,,0.00,weatherlink.com 1.10,2013-09-20 08:12:00,
2013-09-20 04:27:00,50.9,50.0,30.04,NW,318,0.0,1.0,97,0.00,,,0.00,weatherlink.com 1.10,2013-09-20 08:27:00,
2013-09-20 04:42:00,50.9,50.0,30.04,NW,318,0.0,0.0,97,0.00,,,0.00,weatherlink.com 1.10,2013-09-20 08:42:00,
2013-09-20 04:57:00,51.1,50.0,30.04,NW,318,0.0,0.0,97,0.00,,,0.00,weatherlink.com 1.10,2013-09-20 08:57:00,
2013-09-20 05:12:00,52.1,51.0,30.04,NW,317,0.0,0.0,97,0.00,,,0.00,weatherlink.com 1.10,2013-09-20 09:12:00,
2013-09-20 05:27:00,53.0,52.0,30.04,NW,318,0.0,0.0,97,0.00,,,0.00,weatherlink.com 1.10,2013-09-20 09:27:00,
2013-09-20 05:42:00,53.8,53.0,30.04,NW,317,0.0,0.0,97,0.00,,,0.00,weatherlink.com 1.10,2013-09-20 09:42:00,
2013-09-20 05:57:00,54.6,54.0,30.03,WNW,286,0.0,0.0,97,0.00,,,0.00,weatherlink.com 1.10,2013-09-20 09:57:00,
2013-09-20 06:12:00,55.0,54.0,30.04,WNW,287,0.0,1.0,97,0.00,,,0.00,weatherlink.com 1.10,2013-09-20 10:12:00,
2013-09-20 06:27:00,55.5,55.0,30.03,WNW,286,0.0,0.0,97,0.00,,,0.00,weatherlink.com 1.10,2013-09-20 10:27:00,
2013-09-20 06:43:00,56.1,55.0,30.03,WNW,287,0.0,0.0,97,0.00,,,0.00,weatherlink.com 1.10,2013-09-20 10:43:00,
2013-09-20 06:58:00,56.5,56.0,30.04,WNW,287,0.0,0.0,97,0.00,,,0.00,weatherlink.com 1.10,2013-09-20 10:58:00,
2013-09-20 07:13:00,57.1,56.0,30.04,WNW,287,0.0,1.0,97,0.00,,,0.00,weatherlink.com 1.10,2013-09-20 11:13:00,
2013-09-20 07:28:00,57.4,57.0,30.04,WNW,287,0.0,0.0,97,0.00,,,0.00,weatherlink.com 1.10,2013-09-20 11:28:00,
2013-09-20 07:43:00,57.7,57.0,30.05,WNW,287,0.0,0.0,97,0.00,,,0.00,weatherlink.com 1.10,2013-09-20 11:43:00,
2013-09-20 07:58:00,58.3,58.0,30.04,WNW,287,0.0,0.0,97,0.00,,,0.00,weatherlink.com 1.10,2013-09-20 11:58:00,
2013-09-20 08:13:00,58.6,58.0,30.03,WNW,287,0.0,0.0,97,0.00,,,0.00,weatherlink.com 1.10,2013-09-20 12:13:00,
2013-09-20 08:28:00,59.0,58.0,30.03,WNW,287,0.0,0.0,97,0.00,,,0.00,weatherlink.com 1.10,2013-09-20 12:28:00,
2013-09-20 08:43:00,59.9,59.0,30.02,WNW,287,0.0,0.0,98,0.00,,,0.00,weatherlink.com 1.10,2013-09-20 12:43:00,
2013-09-20 08:58:00,61.1,61.0,30.02,WNW,287,0.0,0.0,98,0.00,,,0.00,weatherlink.com 1.10,2013-09-20 12:58:00,
2013-09-20 09:13:00,62.4,62.0,30.02,WNW,287,0.0,0.0,98,0.00,,,0.00,weatherlink.com 1.10,2013-09-20 13:13:00,
2013-09-20 09:28:00,63.4,63.0,30.02,WNW,283,0.0,1.0,97,0.00,,,0.00,weatherlink.com 1.10,2013-09-20 13:28:00,
2013-09-20 09:43:00,64.4,64.0,30.02,WNW,283,0.0,0.0,97,0.00,,,0.00,weatherlink.com 1.10,2013-09-20 13:43:00,
2013-09-20 09:58:00,65.2,64.0,30.02,East,85,1.0,1.0,96,0.00,,,0.00,weatherlink.com 1.10,2013-09-20 13:58:00,
2013-09-20 10:13:00,67.1,65.0,30.01,East,89,2.0,4.0,94,0.00,,,0.00,weatherlink.com 1.10,2013-09-20 14:13:00,
2013-09-20 10:28:00,69.0,66.0,30.01,NE,42,1.0,3.0,90,0.00,,,0.00,weatherlink.com 1.10,2013-09-20 14:28:00,
2013-09-20 10:43:00,70.4,66.0,30.01,East,88,0.0,2.0,85,0.00,,,0.00,weatherlink.com 1.10,2013-09-20 14:43:00,
2013-09-20 10:58:00,71.2,66.0,30.01,East,82,0.0,3.0,83,0.00,,,0.00,weatherlink.com 1.10,2013-09-20 14:58:00,
2013-09-20 11:13:00,72.4,66.0,30.01,WNW,289,1.0,2.0,81,0.00,,,0.00,weatherlink.com 1.10,2013-09-20 15:13:00,
2013-09-20 11:28:00,73.5,67.0,30.00,North,354,1.0,3.0,81,0.00,,,0.00,weatherlink.com 1.10,2013-09-20 15:28:00,
2013-09-20 11:43:00,74.0,66.0,30.00,WNW,294,4.0,5.0,77,0.00,,,0.00,weatherlink.com 1.10,2013-09-20 15:43:00,
2013-09-20 11:59:00,75.0,67.0,30.00,West,266,1.0,6.0,76,0.00,,,0.00,weatherlink.com 1.10,2013-09-20 15:59:00,
2013-09-20 12:14:00,76.4,68.0,30.00,NW,307,2.0,4.0,75,0.00,,,0.00,weatherlink.com 1.10,2013-09-20 16:14:00,
2013-09-20 12:29:00,75.6,68.0,30.00,NNW,336,1.0,5.0,76,0.00,,,0.00,weatherlink.com 1.10,2013-09-20 16:29:00,
2013-09-20 12:44:00,75.4,67.0,30.00,West,260,0.0,3.0,76,0.00,,,0.00,weatherlink.com 1.10,2013-09-20 16:44:00,
2013-09-20 12:59:00,75.9,68.0,29.99,SW,228,1.0,3.0,76,0.00,,,0.00,weatherlink.com 1.10,2013-09-20 16:59:00,
2013-09-20 13:14:00,78.1,68.0,29.98,East,89,2.0,3.0,72,0.00,,,0.00,weatherlink.com 1.10,2013-09-20 17:14:00,
2013-09-20 13:29:00,78.0,67.0,29.98,West,271,2.0,4.0,70,0.00,,,0.00,weatherlink.com 1.10,2013-09-20 17:29:00,
2013-09-20 13:44:00,77.7,68.0,29.97,West,271,0.0,5.0,72,0.00,,,0.00,weatherlink.com 1.10,2013-09-20 17:44:00,
2013-09-20 13:59:00,77.9,68.0,29.96,West,264,0.0,5.0,72,0.00,,,0.00,weatherlink.com 1.10,2013-09-20 17:59:00,
2013-09-20 14:14:00,78.3,69.0,29.96,West,275,0.0,4.0,73,0.00,,,0.00,weatherlink.com 1.10,2013-09-20 18:14:00,
2013-09-20 14:29:00,79.5,69.0,29.95,WSW,254,3.0,4.0,70,0.00,,,0.00,weatherlink.com 1.10,2013-09-20 18:29:00,
2013-09-20 14:44:00,79.6,69.0,29.94,NW,304,3.0,5.0,69,0.00,,,0.00,weatherlink.com 1.10,2013-09-20 18:44:00,
2013-09-20 14:59:00,79.3,68.0,29.94,ENE,65,1.0,5.0,69,0.00,,,0.00,weatherlink.com 1.10,2013-09-20 18:59:00,
2013-09-20 15:14:00,79.5,68.0,29.93,WNW,290,1.0,4.0,69,0.00,,,0.00,weatherlink.com 1.10,2013-09-20 19:14:00,
2013-09-20 15:29:00,79.4,68.0,29.93,SW,228,0.0,4.0,69,0.00,,,0.00,weatherlink.com 1.10,2013-09-20 19:29:00,
2013-09-20 15:44:00,78.9,69.0,29.93,ENE,77,0.0,2.0,71,0.00,,,0.00,weatherlink.com 1.10,2013-09-20 19:44:00,
2013-09-20 15:59:00,78.0,70.0,29.93,ENE,78,0.0,1.0,76,0.00,,,0.00,weatherlink.com 1.10,2013-09-20 19:59:00,
2013-09-20 16:14:00,77.2,70.0,29.93,ENE,78,0.0,0.0,79,0.00,,,0.00,weatherlink.com 1.10,2013-09-20 20:14:00,
2013-09-20 16:29:00,77.7,70.0,29.92,East,79,1.0,1.0,76,0.00,,,0.00,weatherlink.com 1.10,2013-09-20 20:29:00,
2013-09-20 16:44:00,78.5,69.0,29.91,East,98,1.0,3.0,73,0.00,,,0.00,weatherlink.com 1.10,2013-09-20 20:44:00,
2013-09-20 16:59:00,78.5,70.0,29.91,East,86,0.0,1.0,74,0.00,,,0.00,weatherlink.com 1.10,2013-09-20 20:59:00,
2013-09-20 17:14:00,78.4,69.0,29.91,ENE,64,0.0,2.0,73,0.00,,,0.00,weatherlink.com 1.10,2013-09-20 21:14:00,
2013-09-20 17:29:00,78.3,71.0,29.90,ENE,68,0.0,1.0,77,0.00,,,0.00,weatherlink.com 1.10,2013-09-20 21:29:00,
2013-09-20 17:44:00,78.6,70.0,29.89,ENE,78,0.0,1.0,76,0.00,,,0.00,weatherlink.com 1.10,2013-09-20 21:44:00,
2013-09-20 17:59:00,78.2,69.0,29.88,ENE,57,0.0,2.0,74,0.00,,,0.00,weatherlink.com 1.10,2013-09-20 21:59:00,
2013-09-20 18:14:00,77.2,68.0,29.88,ENE,68,1.0,4.0,74,0.00,,,0.00,weatherlink.com 1.10,2013-09-20 22:14:00,
2013-09-20 18:29:00,76.1,68.0,29.87,West,263,0.0,5.0,75,0.00,,,0.00,weatherlink.com 1.10,2013-09-20 22:29:00,
2013-09-20 18:44:00,75.3,67.0,29.87,ENE,64,0.0,2.0,76,0.00,,,0.00,weatherlink.com 1.10,2013-09-20 22:44:00,
2013-09-20 18:59:00,74.4,67.0,29.88,WNW,292,0.0,1.0,78,0.00,,,0.00,weatherlink.com 1.10,2013-09-20 22:59:00,
2013-09-20 19:14:00,72.8,67.0,29.88,NNW,347,0.0,1.0,82,0.00,,,0.00,weatherlink.com 1.10,2013-09-20 23:14:00,
2013-09-20 19:29:00,71.9,67.0,29.88,NE,39,0.0,0.0,84,0.00,,,0.00,weatherlink.com 1.10,2013-09-20 23:29:00,
2013-09-20 19:44:00,71.5,67.0,29.88,NE,39,0.0,0.0,86,0.00,,,0.00,weatherlink.com 1.10,2013-09-20 23:44:00,
2013-09-20 20:00:00,70.8,67.0,29.89,NE,38,0.0,0.0,87,0.00,,,0.00,weatherlink.com 1.10,2013-09-21 00:00:00,
2013-09-20 20:14:00,70.1,67.0,29.89,NE,39,0.0,0.0,88,0.00,,,0.00,weatherlink.com 1.10,2013-09-21 00:14:00,
2013-09-20 20:29:00,69.4,66.0,29.89,NE,39,0.0,0.0,89,0.00,,,0.00,weatherlink.com 1.10,2013-09-21 00:29:00,
2013-09-20 20:44:00,68.6,65.0,29.89,NE,38,0.0,0.0,89,0.00,,,0.00,weatherlink.com 1.10,2013-09-21 00:44:00,
2013-09-20 21:00:00,67.7,65.0,29.89,NE,39,0.0,0.0,90,0.00,,,0.00,weatherlink.com 1.10,2013-09-21 01:00:00,
2013-09-20 21:15:00,66.9,64.0,29.88,NE,38,0.0,0.0,91,0.00,,,0.00,weatherlink.com 1.10,2013-09-21 01:15:00,
2013-09-20 21:30:00,66.4,64.0,29.89,NE,38,0.0,0.0,92,0.00,,,0.00,weatherlink.com 1.10,2013-09-21 01:30:00,
2013-09-20 21:45:00,65.9,64.0,29.89,NE,39,0.0,0.0,92,0.00,,,0.00,weatherlink.com 1.10,2013-09-21 01:45:00,
2013-09-20 22:00:00,65.5,64.0,29.89,NE,38,0.0,0.0,93,0.00,,,0.00,weatherlink.com 1.10,2013-09-21 02:00:00,
2013-09-20 22:15:00,64.9,63.0,29.89,NE,38,0.0,0.0,93,0.00,,,0.00,weatherlink.com 1.10,2013-09-21 02:15:00,
2013-09-20 22:30:00,64.3,62.0,29.89,NE,38,0.0,0.0,93,0.00,,,0.00,weatherlink.com 1.10,2013-09-21 02:30:00,
2013-09-20 22:45:00,63.9,62.0,29.89,NNE,18,0.0,0.0,93,0.00,,,0.00,weatherlink.com 1.10,2013-09-21 02:45:00,
2013-09-20 23:00:00,63.6,62.0,29.88,NNE,18,0.0,0.0,93,0.00,,,0.00,weatherlink.com 1.10,2013-09-21 03:00:00,
2013-09-20 23:15:00,63.2,62.0,29.87,NNE,18,0.0,0.0,94,0.00,,,0.00,weatherlink.com 1.10,2013-09-21 03:15:00,
2013-09-20 23:30:00,62.8,61.0,29.87,North,9,0.0,0.0,94,0.00,,,0.00,weatherlink.com 1.10,2013-09-21 03:30:00,
2013-09-20 23:45:00,62.4,61.0,29.87,NW,308,0.0,1.0,94,0.00,,,0.00,weatherlink.com 1.10,2013-09-21 03:45:00,